Regional Weather Roundup
Issued by NWS

Home | Current Version | Previous Version | Text Only | Print | Product List | Glossary On
Versions: 1 2 3 4 5 6 7 8 9 10 11 12 13 14 15 16 17 18 19 20 21 22 23 24 25 26 27 28 29 30 31 32 33 34 35 36 37 38 39 40 41 42 43 44 45 46 47 48 49 50
000
ASUS43 KIND 241609
RWRIN

WEATHER ROUNDUP FOR INDIANA
NATIONAL WEATHER SERVICE INDIANAPOLIS IN
1200 PM EDT SUN JUL 24 2016

NOTE: "FAIR" INDICATES FEW OR NO CLOUDS BELOW 12,000 FEET WITH NO
SIGNIFICANT WEATHER AND/OR OBSTRUCTIONS TO VISIBILITY.

* - STATION DOES NOT REPORT WEATHER SUCH AS PRECIPITATION OR FOG.

+ - STATION NOT QUALITY CONTROLLED BY THE NATIONAL WEATHER SERVICE.
    USE DATA WITH CAUTION...ESPECIALLY DEWPOINT AND RELATIVE
    HUMIDITY OBSERVATIONS.

INZ001>003-010>013-019-020-241700-
NORTHWEST INDIANA

CITY           SKY/WX    TMP DP  RH WIND       PRES   REMARKS
GARY /AIRPORT/ PTSUNNY   84 N/A N/A S12       29.92F
KNOX *+        MOSUNNY   82  66  57 S10G17    29.96R
LA PORTE +     SUNNY     85  80  86 S9        29.97R HX  99
MICHIGAN CITY+ MOSUNNY   84  77  79 S10G17    29.95R
MONTICELLO +   SUNNY     85  72  63 S13       29.97S
RENSSELAER +   SUNNY     82  77  83 S9G17     29.96S
VALPARAISO     SUNNY     84  74  71 S12       29.95S

$$

LMZ046-743>745-241700-
SOUTHERN LAKE MICHIGAN

STATION/POSITION TIME  TEMP    WIND        PRES    WAVE
                       AIR SEA DIR/SP/G            HT
                 (UTC) (F)     (DEG/KT/KT) (MB)    (FT)
BURNS HARBOR     1506   81     190/ 16/ 21 1013.5F
MICHIGAN CITY    1500   80     160/ 16/ 21   N/A
5NW MICH CITY    1500   78 73  200/ 14/ 17   N/A     1

$$

INZ004-005-014>016-021>024-241700-
NORTH CENTRAL INDIANA

CITY           SKY/WX    TMP DP  RH WIND       PRES   REMARKS
ELKHART        CLOUDY    79  77  94 E12       29.99R
GOSHEN         CLOUDY    83  71  67 S5        29.99R
LOGANSPORT +   MOSUNNY   84  73  70 S13G20    29.99S
PERU/GRISSOM   CLOUDY    86  75  69 SW14      29.98S HX  96
ROCHESTER +    CLOUDY    88  77  70 S12G17    29.99R HX 100
SOUTH BEND     CLOUDY    82  74  76 S14       29.97R
WARSAW +       CLOUDY    82  72  69 SW5       29.99S

$$

INZ006>009-017-018-025>027-241700-
NORTHEAST INDIANA

CITY           SKY/WX    TMP DP  RH WIND       PRES   REMARKS
ANGOLA *+      CLOUDY    73  66  78 NE6       30.03R
AUBURN +       CLOUDY    86  68  54 SW5       30.02R
FORT WAYNE     PTSUNNY   85  73  67 SW9       30.00S
HUNTINGTON +   SUNNY    N/A N/A N/A SW6       30.00R

$$

INZ028-029-035-036-043>045-051>053-241700-
WEST CENTRAL INDIANA

CITY           SKY/WX    TMP DP  RH WIND       PRES   REMARKS
CRAWFORDSVL +  SUNNY     85  80  85 S7        30.00F HX  98
GREENCASTLE +  PTSUNNY   86  81  84 S5        30.01F HX 102
LAFAYETTE      MOSUNNY   85  77  77 SW12      29.97F HX  95
TERRE HAUTE    MOSUNNY   89  77  67 S7        30.00S HX 101

$$

INZ030>032-037>040-046>048-054>057-064-065-241700-
CENTRAL INDIANA

CITY           SKY/WX    TMP DP  RH WIND       PRES   REMARKS
COLUMBUS         N/A     86  79  79 S7        30.02S HX  99
FRANKFORT +    MOSUNNY   88  78  71 SW7       30.02S HX 101
INDIANAPOLIS   PTSUNNY   88  76  67 SW9       30.01F HX  99
-EAGLE CREEK   MOSUNNY   89  75  63 S8        30.00F HX  99
KOKOMO *+      CLOUDY    88  73  62 SW15      29.99F HX  96
MARION +       CLOUDY    85  74  69 SW10G16   30.01S
MT COMFORT *+  PTSUNNY   84  77  79 S8        30.02F
SHELBYVILLE    MOSUNNY   88  77  69 SW8       30.01S HX 100
ZIONSVILLE +   PTSUNNY   83  76  80 S7        30.02F

$$

INZ033-034-041-042-049-050-058-059-241700-
EAST CENTRAL INDIANA

CITY           SKY/WX    TMP DP  RH WIND       PRES   REMARKS
MUNCIE         MOSUNNY   89  75  63 S9        30.01S HX  99

$$

INZ060-061-067>069-081>083-085>088-241700-
SOUTHWEST INDIANA

CITY           SKY/WX    TMP DP  RH WIND       PRES   REMARKS
EVANSVILLE     MOSUNNY   87  76  69 S9        30.01R HX  97
HUNTINGBURG *+ MOSUNNY   88  77  70 S6        30.02R HX 100
WASHINGTON +   MOSUNNY   87  80  79 MISG      30.01R HX 103

$$

INZ062-063-066-070>080-084-089>092-241700-
SOUTH CENTRAL AND SOUTHEAST INDIANA

CITY           SKY/WX    TMP DP  RH WIND       PRES   REMARKS
BLOOMINGTON    MOSUNNY   86  76  71 SW8       30.02S HX  96
MADISON *+     MOSUNNY   88  72  58 SW7       30.05S

$$





USA.gov is the U.S. government's official web portal to all federal, state and local government web resources and services.